Location: Pallagorio
(39.3000°N, 16.9000°E)
Time: 20:34:27
(UTC+00:00)

Cosmos 1092 Rocket - Pass Details

Date: 24 January 2021
Orbit: 954 x 995 km, 83.0° (Epoch: 02 March)

Event Time Altitude Azimuth Distance (km) Brightness Sun altitude
Rises 16:45:12 0° 167° (SSE) 3,652 7.1 -8.3°
Reaches altitude 10° 16:47:48 10° 162° (SSE) 2,703 6.3 -8.8°
Maximum altitude 16:53:39 46° 90° (E) 1,265 4.2 -9.9°
Drops below altitude 10° 16:59:29 10° 19° (NNE) 2,697 6.0 -11.0°
Sets 17:02:04 0° 14° (NNE) 3,644 6.7 -11.4°
